EHI
0 0 0 0 0 0 0 0 0 0 0 0 0 0 0 0 0 0 0 0 0 0 0 0 0 0 0 0 0 0 0 0 0 0 0 0 0 0 0 0 0 0 0 0
0 0 0 0 0 0 0 0 0 0 0 0 0 0 0 0 0 0 0 0 0 0 0 0 0 0 0 0 0 0 0 0 0 0 0 0 0 0 0 0 0 0 0 0
0 0 0 0 0 0 0 0 0 0 0 0 0 0 0 0 0 0 0 0 0 0 0 0 0 0 0 0 0 0 0 0 0 0 0 0 0 0 0 0 0 0 0 0
0 0 0 0 0 0 0 0 0 0 0 0 0 0 0 0 0 0 0 0 0 0 0 0 0 0 0 0 0 0 0 0 0 0 0 0 0 0 0 0 0 0 0 0
0 0 0 0 0 0 0 0 0 0 0 0 0 0 0 0 0 0 0 0 0 0 0 0 0 0 0 0 0 0 0 0 0 0 0 0 0 0 0 0 0 0 0 0
0 0 0 0 0 0 0 0 0 0 0 0 0 0 0 0 0 0 0 0 0 0 0 0 0 0 0 0 0 0 0 0 0 0 0 0 0 0 0 0 0 0 0 0
0 0 0 0 0 0 0 0 0 0 0 0 0 0 0 0 0 0 0 0 0 0 0 0 0 0 0 0 0 0 0 0 0 0 0 0 0 0 0 0 0 0 0 0
0 0 0 0 0 0 0 0 0 0 0 0 0 0 0 0 0 0 0 0 0 0 0 0 0 0 0 0 0 0 0 0 0 0 0 0 0 0 0 0 0 0 0 0
0 0 0 0 0 0 0 0 0 0 0 0 0 0 0 0 0 0 0 0 0 0 0 0 0 0 0 0 0 0 0 0 0 0 0 0 0 0 0 0 0 0 0 0
0 0 0 0 0 0 0 0 0 0 0 0 0 0 0 0 0 0 0 0 0 0 0 0 0 0 0 0 0 0 0 0 0 0 0 0 0 0 0 0 0 0 0 0
0 0 0 0 0 0 0 0 0 0 0 0 0 0 0 0 0 0 0 0 0 0 0 0 0 0 0 0 0 0 0 0 0 0 0 0 0 0 0 0 0 0 0 0
0 0 0 0 0 0 0 0 0 0 0 0 0 0 0 0 0 0 0 0 0 0 0 0 0 0 0 0 0 0 0 0 0 0 0 0 0 0 0 0 0 0 0 0
0 0 0 0 0 0 0 0 0 0 0 0 0 0 0 0 0 0 0 0 0 0 0 0 0 0 0 0 0 0 0 0 0 0 0 0 0 0 0 0 0 0 0 0
0 0 0 0 0 0 0 0 0 0 0 0 0 0 0 0 0 0 0 0 0 0 0 0 0 0 0 0 0 0 0 0 0 0 0 0 0 0 0 0 0 0 0 0
0 0 0 0 0 0 0 0 0 0 0 0 0 0 0 0 0 0 0 0 0 0 0 0 0 0 0 0 0 0 0 0 0 0 0 0 0 0 0 0 0 0 0 0
0 0 0 0 0 0 0 0 0 0 0 0 0 0 0 0 0 0 0 0 0 0 0 0 0 0 0 0 0 0 0 0 0 0 0 0 0 0 0 0 0 0 0 0
0 0 0 0 0 0 0 0 0 0 0 0 0 0 0 0 0 0 0 0 0 0 0 0 0 0 0 0 0 0 0 0 0 0 0 0 0 0 0 0 0 0 0 0
0 0 0 0 0 0 0 0 0 0 0 0 0 0 0 0 0 0 0 0 0 0 0 0 0 0 0 0 0 0 0 0 0 0 0 0 0 0 0 0 0 0 0 0
0 0 0 0 0 0 0 0 0 0 0 0 0 0 0 0 0 0 0 0 0 0 0 0 0 0 0 0 0 0 0 0 0 0 0 0 0 0 0 0 0 0 0 0
0 0 0 0 0 0 0 0 0 0 0 0 0 0 0 0 0 0 0 0 0 0 0 0 0 0 0 0 0 0 0 0 0 0 0 0 0 0 0 0 0 0 0 0
0 0 0 0 0 0 0 0 0 0 0 0 0 0 0 0 0 0 0 0 0 0 0 0 0 0 0 0 0 0 0 0 0 0 0 0 0 0 0 0 0 0 0 0
0 0 0 0 0 0 0 0 0 0 0 0 0 0 0 0 0 0 0 0 0 0 0 0 0 0 0 0 0 0 0 0 0 0 0 0 0 0 0 0 0 0 0 0
0 0 0 0 0 0 0 0 0 0 0 0 0 0 0 0 0 0 0 0 0 0 0 0 0 0 0 0 0 0 0 0 0 0 0 0 0 0 0 0 0 0 0 0
0 0 0 0 0 0 0 0 0 0 0 0 0 0 0 0 0 0 0 0 0 0 0 0 0 0 0 0 0 0 0 0 0 0 0 0 0 0 0 0 0 0 0 0
0 0 0 0 0 0 0 0 0 0 0 0 0 0 0 0 0 0 0 0 0 0 0 0 0 0 0 0 0 0 0 0 0 0 0 0 0 0 0 0 0 0 0 0
0 0 0 0 0 0 0 0 0 0 0 0 0 0 0 0 0 0 0 0 0 0 0 0 0 0 0 0 0 0 0 0 0 0 0 0 0 0 0 0 0 0 0 0
0 0 0 0 0 0 0 0 0 0 0 0 0 0 0 0 0 0 0 0 0 0 0 0 0 0 0 0 0 0 0 0 0 0 0 0 0 0 0 0 0 0 0 0
Wind_Speed
5 5 4 6 7 7 9 9 8 10 12 12 9 9 8 7 5 4 4 4 4 3 2 2 2 1 2 2 2 3 4 4 4 3 3 3 3 3 3 3 3 4 3 3
4 4 5 7 10 10 11 11 12 13 15 11 10 8 8 7 5 4 4 4 4 3 3 3 3 2 2 2 2 3 4 4 3 3 3 3 3 3 3 3 3 3 4 4
4 3 4 9 9 10 9 9 9 12 12 8 8 8 8 7 6 6 5 4 4 3 3 4 3 3 3 2 2 3 3 3 3 4 3 3 3 3 3 3 3 3 3 4
2 2 8 2 1 5 7 8 8 10 10 9 10 9 8 6 6 6 5 4 4 4 4 4 3 2 2 2 2 3 3 3 3 3 3 3 3 3 3 3 3 3 3 3
2 4 8 5 3 4 5 7 6 9 10 9 8 6 4 4 5 5 4 4 3 3 4 3 3 2 1 2 1 2 2 2 3 3 4 4 3 3 3 3 2 2 3 3
3 5 6 2 1 1 3 5 2 4 6 6 4 4 4 5 5 5 3 3 3 3 3 2 2 1 1 1 1 1 1 1 2 3 3 4 3 3 2 2 2 2 2 2
5 6 8 2 1 3 4 2 2 3 5 4 4 5 5 6 5 4 3 3 3 2 2 2 2 1 1 1 1 1 1 1 1 2 2 3 3 2 3 2 2 2 2 2
5 7 7 2 4 5 3 4 3 4 4 5 6 5 4 4 4 4 4 3 3 2 2 2 2 1 1 2 1 1 1 2 2 2 2 2 3 3 3 3 3 2 2 2
7 6 3 3 4 3 3 4 5 5 5 4 5 5 4 4 4 4 4 3 3 2 3 3 2 2 2 1 0 1 2 2 2 2 2 2 3 3 3 2 2 2 2 2
7 9 8 7 7 7 6 6 6 6 5 4 5 5 5 4 4 4 4 3 3 3 3 3 3 2 2 1 1 2 2 2 2 2 2 2 2 2 2 3 3 2 2 2
9 9 8 7 7 7 6 6 6 6 5 5 5 5 5 4 4 4 4 3 3 3 3 3 3 2 2 1 1 2 2 2 2 2 2 2 2 1 2 2 3 3 3 3
7 5 5 5 4 5 6 6 6 5 5 4 4 5 4 4 4 4 3 3 3 3 3 3 2 2 2 1 2 2 2 2 2 2 2 2 2 1 1 2 2 3 3 3
6 4 5 7 6 5 6 6 5 5 5 5 4 4 4 4 3 3 3 3 3 4 3 3 3 3 2 1 2 2 2 2 2 2 2 2 2 2 1 1 2 2 3 3
6 5 6 6 5 5 5 5 4 4 4 4 3 3 3 3 3 3 3 3 3 3 3 3 2 3 2 2 1 2 2 2 2 2 2 2 2 2 2 2 1 1 2 3
6 6 7 5 5 5 4 3 3 3 3 3 2 2 2 2 3 3 3 3 2 3 3 2 2 3 2 1 1 1 2 2 1 1 2 2 2 2 2 2 2 1 1 1
4 5 6 5 5 5 4 3 3 3 3 3 3 3 3 3 2 3 2 2 2 3 3 3 3 3 2 1 1 1 1 2 1 1 2 2 2 2 2 2 2 2 2 1
4 5 5 5 6 5 4 4 4 4 3 3 3 3 2 2 2 2 3 2 2 3 3 3 3 3 2 1 1 1 1 2 2 1 2 2 2 2 2 2 2 2 1 2
8 7 6 6 6 6 5 4 4 4 4 4 3 2 2 2 2 3 3 3 2 3 3 3 2 2 2 1 1 1 1 1 2 2 1 1 1 1 2 2 2 2 1 1
7 7 6 6 6 5 5 5 4 3 3 2 2 2 3 3 3 3 2 2 2 3 3 2 2 2 1 1 1 1 1 1 1 1 1 2 1 1 1 1 1 1 1 1
5 5 5 5 4 4 4 4 3 2 2 2 2 2 2 3 2 2 2 2 3 3 2 2 2 2 1 1 1 1 1 1 2 1 1 1 1 1 1 1 1 1 1 1
5 4 4 4 3 3 3 3 3 2 2 2 2 3 3 3 2 2 2 2 2 2 2 2 2 1 1 1 1 1 1 1 1 2 2 1 1 1 1 1 1 1 1 1
4 4 4 3 3 3 2 2 2 2 2 2 2 2 2 2 2 2 2 2 2 2 2 1 1 1 1 1 1 1 1 1 1 1 1 1 1 1 1 1 1 1 0 1
3 3 3 3 2 2 2 2 2 2 2 2 3 3 3 2 2 2 2 2 2 2 1 1 1 1 1 1 1 1 1 1 1 1 1 1 1 1 1 1 1 1 1 1
3 3 2 2 1 2 2 2 2 2 2 2 2 2 2 2 2 2 2 2 2 2 1 1 1 1 1 1 1 1 1 1 1 1 1 1 1 1 1 1 1 1 1 1
3 2 2 2 2 2 2 2 1 1 2 2 2 2 2 2 2 2 2 2 2 1 1 0 1 1 1 1 1 1 1 1 1 1 1 1 1 1 1 1 1 1 1 1
3 3 3 3 3 2 2 2 2 2 1 2 2 1 1 1 1 1 1 1 1 0 0 0 0 1 1 1 1 1 1 1 1 1 1 1 1 2 2 2 2 1 1 1
2 2 2 2 2 2 2 2 2 2 2 2 2 1 1 1 0 1 1 1 0 0 0 0 0 1 1 1 1 1 1 1 1 1 1 1 1 1 2 2 1 1 2 2
Wind_Direction
263 266 249 241 238 221 221 237 248 263 267 276 291 298 302 308 307 299 303 307 304 306 303 296 271 262 249 227 202 192 196 197 199 195 189 184 186 187 188 193 198 203 199 201
259 255 253 259 250 235 234 242 250 265 272 281 295 296 293 294 295 288 292 298 305 310 308 304 288 267 249 238 212 195 196 198 190 183 180 180 180 180 183 188 193 199 202 202
254 277 270 255 237 224 226 230 234 247 263 296 296 293 287 286 281 276 287 296 302 301 299 300 295 277 248 244 221 201 197 193 188 183 182 184 181 180 187 194 197 203 203 209
264 241 242 254 110 218 231 246 242 262 282 288 290 293 289 283 278 280 288 295 300 304 301 301 296 283 252 223 209 197 190 189 189 188 183 182 185 189 195 197 203 210 207 213
227 253 269 269 209 201 222 260 247 256 279 296 309 300 286 305 298 281 283 285 294 302 301 304 304 293 227 216 196 183 192 195 197 188 181 182 188 192 195 196 207 213 210 209
215 241 252 278 143 201 216 258 250 259 275 292 311 284 305 339 324 312 309 315 323 319 308 303 301 281 208 209 199 208 217 215 202 190 185 188 190 192 192 194 206 203 206 212
226 247 268 305 145 176 214 282 333 273 276 271 262 274 316 326 327 326 326 331 334 322 308 304 307 290 237 225 232 240 215 193 183 184 189 186 181 184 179 181 195 199 199 214
205 224 253 129 153 204 274 335 306 295 290 278 277 293 307 316 324 326 330 332 329 326 321 321 317 277 258 253 249 180 175 178 173 168 171 175 175 175 176 173 186 190 191 216
218 239 313 199 226 268 300 285 290 292 296 288 286 291 301 309 315 320 319 320 322 321 318 316 306 269 252 268 222 174 172 174 163 160 168 174 179 176 174 179 191 192 197 211
255 261 265 258 262 269 268 273 287 289 291 285 286 296 303 303 309 317 320 321 321 315 307 306 306 295 273 261 204 181 183 179 169 166 166 168 180 188 186 192 198 196 206 212
256 268 279 264 254 264 275 276 280 282 277 274 279 285 290 297 302 305 311 313 308 297 295 299 301 293 290 258 198 189 193 185 174 172 167 170 182 193 211 232 226 216 214 213
245 255 258 282 296 286 275 275 276 280 287 283 270 271 280 286 291 295 302 306 302 298 298 303 306 296 290 262 218 191 185 186 183 176 174 177 164 147 158 222 235 245 249 247
267 288 276 285 291 286 278 281 280 272 273 279 279 270 273 280 288 292 295 298 295 297 297 302 306 299 297 282 235 200 197 192 182 179 176 172 170 174 177 161 173 204 217 225
257 265 269 270 276 284 283 284 279 277 278 279 285 287 275 277 287 289 291 296 299 297 296 296 294 293 301 294 255 212 188 185 190 183 179 183 186 186 194 198 201 207 196 201
250 250 262 282 285 281 281 277 276 287 298 303 297 287 278 278 284 292 299 304 300 296 298 300 295 297 309 299 258 215 192 183 186 183 182 184 188 190 197 205 209 213 207 191
259 261 258 257 265 273 276 268 267 277 286 291 292 291 288 281 286 291 295 295 294 297 299 298 292 299 304 286 257 217 201 185 196 189 181 182 188 187 190 199 206 207 209 208
240 246 240 253 260 263 261 259 262 270 274 274 281 291 294 290 291 298 303 302 290 283 284 283 288 301 304 282 251 208 199 185 188 196 193 191 190 189 186 186 196 207 218 224
243 248 241 243 249 255 259 261 262 262 261 266 275 276 266 261 271 287 299 307 303 300 295 292 294 301 297 280 249 218 202 196 196 197 185 180 178 180 180 181 190 202 207 207
250 249 246 244 247 247 249 253 255 257 262 257 252 257 263 268 273 281 289 292 289 296 307 308 300 293 286 265 238 211 190 182 175 168 163 163 160 167 167 169 182 196 196 211
258 253 248 250 250 245 245 246 244 248 249 239 242 257 270 276 275 275 272 270 273 285 301 303 294 285 276 237 211 196 187 182 168 158 157 161 162 159 157 161 177 187 186 205
263 259 253 252 254 251 241 233 224 233 242 230 229 243 261 277 277 266 260 275 294 293 282 272 276 276 255 207 186 177 172 171 164 161 159 159 157 153 153 159 171 181 178 190
268 262 260 256 249 256 252 236 226 229 238 242 248 250 258 272 274 269 262 267 284 289 288 270 272 263 241 200 177 164 161 162 159 150 148 148 154 158 157 160 171 173 161 163
274 267 261 252 247 260 272 254 233 228 233 238 240 242 252 266 267 265 286 291 284 274 274 269 271 247 199 129 135 144 144 142 140 139 139 144 155 165 164 164 163 153 148 136
271 266 261 259 238 236 252 260 252 249 249 257 252 245 247 263 275 271 288 289 287 278 281 259 232 211 147 103 134 141 144 141 138 137 135 140 150 153 149 145 140 129 118 106
262 254 242 226 229 238 244 251 253 250 255 263 270 263 254 253 259 281 299 298 295 286 309 254 199 153 113 106 128 136 141 144 135 133 140 145 145 141 136 132 128 123 119 118
256 252 248 246 249 246 237 230 235 240 242 256 274 272 268 271 274 281 290 300 304 303 341 310 215 143 102 104 114 121 123 133 132 131 137 135 136 134 127 121 119 121 121 122
256 253 251 252 246 232 227 226 229 234 232 235 255 266 269 267 271 286 293 287 285 280 45 103 114 102 94 94 98 101 108 110 111 119 128 128 129 130 129 130 129 126 124 128